Location: LDNL
(36.4545°S, 141.6685°E)
Time: 15:17:18
(UTC+11:00)

STRAND 1 - Pass Details

Date: 06 October 2022
Orbit: 767 x 781 km, 98.4° (Epoch: 03 December)

Event Time Altitude Azimuth Distance (km) Brightness Sun altitude
Rises 20:16:08 0° 355° (N) 3,244 ? -7.8°
Reaches altitude 10° 20:18:35 10° 347° (NNW) 2,323 ? -8.3°
Maximum altitude 20:23:21 39° 278° (W) 1,163 ? -9.2°
Drops below altitude 10° 20:28:10 10° 210° (SSW) 2,343 ? -10.1°
Sets 20:30:39 0° 201° (SSW) 3,276 ? -10.6°
